Location: Newark
(40.4667°N, 5.6000°W)
Time: 03:09:09
(UTC+00:00)

Vanguard 1 - Visible Passes

Search period start: 22 November 2019 00:00
Search period end: 02 December 2019 00:00
Orbit: 652 x 3831 km, 34.2° (Epoch: 20 November)

Date Brightness Start Highest point End Pass type
(mag) Time Alt. Az. Time Alt. Az. Time Alt. Az.
22 Nov 14.3 06:22:15 10° S 06:30:59 16° SSE 06:37:46 10° ESE visible
23 Nov 14.1 06:40:18 10° SSW 06:52:14 22° SSE 07:00:37 10° ESE visible
25 Nov 14.4 05:02:42 10° SSE 05:11:19 14° SE 05:18:29 10° ESE visible
26 Nov 14.1 05:19:43 10° S 05:32:34 20° SE 05:42:14 10° ESE visible
27 Nov 13.9 05:38:18 10° SSW 05:53:47 27° SSE 06:04:38 10° E visible
28 Nov 14.4 03:45:18 10° SSE 03:51:13 12° SE 03:56:37 10° ESE visible
28 Nov 13.6 05:57:42 10° SSW 06:15:00 34° SSE 06:26:26 10° E visible
29 Nov 14.2 04:00:07 10° S 04:12:22 18° SE 04:22:32 10° ESE visible
29 Nov 13.4 06:17:42 10° SW 06:36:12 41° SSE 06:47:53 10° E visible
30 Nov 14.0 04:17:49 10° S 04:33:30 24° SE 04:45:43 10° E visible
30 Nov 13.1 06:38:08 10° SW 06:57:26 48° SSE 07:09:06 10° E visible
01 Dec 13.8 04:36:39 10° SSW 04:54:38 31° SE 05:07:58 10° E visible
01 Dec 12.9 06:58:56 10° SW 07:18:40 54° SSE 07:30:12 10° E visible
